Location: *
(12.5665°N, 8.3471°E)
Time: 09:32:29
(UTC+00:00)

Ariane 3 Deb - Pass Details

Date: 23 September 2019
Orbit: 230 x 18964 km, 6.8° (Epoch: 14 October)

Event Time Altitude Azimuth Distance (km) Brightness Sun altitude
Exits shadow 03:45:30 38° 231° (SW) 1,462 4.0 -22.8°
Maximum altitude 03:47:39 59° 171° (S) 1,524 4.4 -22.3°
Drops below altitude 10° 04:11:50 10° 96° (E) 10,000 10.0 -16.4°
Sets 04:35:06 0° 95° (E) 15,849 11.8 -10.7°
